Other Public Products
Issued by NWS Grand Forks, ND

Home | Current Version | Previous Version | Text Only | Print | Product List | Glossary Off
Versions: 1 2 3 4 5 6 7 8 9 10 11 12 13 14 15 16 17 18 19 20 21 22 23 24 25 26 27 28 29 30 31 32 33 34 35 36 37 38 39 40 41 42 43 44 45 46 47 48 49 50

000
FPUS83 KFGF 242010
OPUFGF
PRAIRIE TO PINES WEATHER ROUNDUP
NATIONAL WEATHER SERVICE EASTERN NORTH DAKOTA/GRAND FORKS ND
300 PM CDT TUE MAY 24 2016

 **SATELLITE DATA USED TO AUGMENT SKY COVER AT AUTOMATED STATIONS**
 *****  WEATHER ACROSS EASTERN NORTH DAKOTA  *****

CITY           SKY/WX    TMP DP  RH WIND       PRES   REMARKS
GRAND FORKS    MOSUNNY   77  52  41 NW5       29.87R
GRAND FORKS AF SUNNY     75  53  45 N6        29.88S
GRAND CITY NWS   N/A     79 N/A N/A NW3         N/A
BUXTON           N/A     80  53  38 NW2         N/A
DEVILS LAKE    SUNNY     74  45  35 VRB6      29.89S
FARGO          MOSUNNY   83  46  27 N10       29.84S
WAHPETON ARPT  PTCLDY    82  45  26 W3        29.84S
$$

 *****  WEATHER ACROSS CENTRAL AND WESTERN NORTH DAKOTA  *****

CITY           SKY/WX    TMP DP  RH WIND       PRES   REMARKS
JAMESTOWN      SUNNY     75  47  36 S5        29.88S
BISMARCK       SUNNY     75  38  26 W5        29.88F
MINOT          MOSUNNY   76  39  26 SW10      29.88S
MINOT AFB      MOSUNNY   71  40  31 SW20G25   29.87R
GARRISON         N/A     73  41  31 W8G21     29.89F
WILLISTON      MOSUNNY   68  39  34 SW9G20    29.88F
DICKINSON      MOSUNNY   69  37  30 MISG      29.88F
HETTINGER      SUNNY     73  42  32 S14       29.90F
$$

 *****  OTHER OBSERVATIONS NORTHEAST NORTH DAKOTA  *****

CITY           SKY/WX    TMP DP  RH WIND       PRES   REMARKS
WALHALLA       FAIR      73  48  40 E12       29.87S
LANGDON        FAIR      75  45  33 SW6G14    29.89S
CAVALIER       FAIR      73  50  43 SE3       29.88S
GRAFTON        FAIR      75  54  46 NW5       29.90S
CANDO          FAIR      75  41  29 W9G20     29.90S
FORT TOTTEN      N/A     77  50  38 NE5       29.95S
ROLLA            N/A     73  37  27 SW16G29   29.89S
RUGBY          FAIR      73  41  31 SW12G18   29.88S
 ***** THE ABOVE OBSERVATIONS ARE NON NWS ARE NOT QUALITY
        CONTROLLED AND MAY MIS-REPORT RAIN FOR SNOW...
$$

 *****  OTHER OBSERVATIONS SOUTHEAST NORTH DAKOTA *****

CITY           SKY/WX    TMP DP  RH WIND       PRES   REMARKS
COOPERSTOWN    NOT AVBL
VALLEY CITY    FAIR      75  48  38 W3        29.91S
OAKES            N/A    N/A N/A N/A MISG        N/A
GWINNER        FAIR      82  46  28 CALM      29.85F
BUFFALO          N/A     77  45  31 W8          N/A
WYNDMERE         N/A     84  46  26 W6          N/A
 ***** THE ABOVE OBSERVATIONS ARE NON NWS ARE NOT QUALITY
       CONTROLLED AND MAY MIS-REPORT RAIN FOR SNOW...
$$

  *****  WEATHER ACROSS NORTHERN MINNESOTA  *****

CITY           SKY/WX    TMP DP  RH WIND       PRES   REMARKS
FLAG ISLAND    SUNNY     66  52  59 N9        29.88R
WARROAD        SUNNY     72  55  56 NE7       29.88S
ROSEAU         SUNNY     75  52  43 W9        29.88S
HALLOCK        SUNNY     75  52  43 NE7       29.87S
THF RVR FALLS  SUNNY     73  48  40 W9        29.90S
HALSTAD        NOT AVBL
FOSSTON        MOSUNNY   75  52  43 W7        29.89F
BAUDETTE       SUNNY     77  49  37 N10       29.86S
WASKISH        SUNNY     73  50  43 W9        29.88R
CROOKSTON      SUNNY     75  54  46 CALM      29.88S
$$
  *****  WEATHER ACROSS CENTRAL AND WEST MINNESOTA  *****

CITY           SKY/WX    TMP DP  RH WIND       PRES   REMARKS
BEMIDJI        SUNNY     78  47  33 W10G23    29.88S
PARK RAPIDS    PTSUNNY   81  53  37 SW9       29.88S
WADENA         SUNNY     81  50  34 CALM      29.87S
DETROIT LAKES  SUNNY     77  50  38 CALM      29.90S
MOORHEAD       MOSUNNY   82  45  26 W5        29.86S
FERGUS FALLS   SUNNY     81  52  36 S6        29.81F
ELBOW LAKE     FAIR      80  49  33 SE5       29.85F
MORRIS MN      SUNNY     84  54  34 S6        29.84S
STAPLES        SUNNY     81  46  30 SW3       29.87F
WHEATON        SUNNY     86  54  32 CALM      29.85S
$$
  *****  WEATHER ELSEWHERE ACROSS MINNESOTA  *****

CITY           SKY/WX    TMP DP  RH WIND       PRES   REMARKS
DULUTH         MOSUNNY   75  54  47 N3        29.90R
INTRNTL FALLS  MOSUNNY   79  47  32 SW5G17    29.85F
ELY            MOSUNNY   73  50  43 SE5       29.89S
CLOQUET        PTSUNNY   73  52  46 N3        29.89S
BRAINERD       SUNNY     79  53  40 SE5       29.89S
HIBBING        SUNNY     78  51  38 NW7       29.88S
ALEXANDRIA     MOSUNNY   79  50  36 E3        29.88F
SAINT CLOUD    MOSUNNY   77  58  51 S7        29.88S
MINNEAPOLIS    MOSUNNY   84  55  36 NW6       29.88F
$$

  *****  WEATHER ACROSS SOUTH DAKOTA  *****

CITY           SKY/WX    TMP DP  RH WIND       PRES   REMARKS
SIOUX FALLS    MOSUNNY   83  52  34 NW6       29.87S
BROOKINGS      SUNNY     82  53  36 S3        29.87F
WATERTOWN      SUNNY     80  56  43 S7        29.88S
HURON          SUNNY     82  54  37 VRB5      29.84F
SISSETON         N/A     85  48  27 SW9       29.83S
ABERDEEN       SUNNY     82  47  29 VRB5      29.84F
MITCHELL       SUNNY     84  48  28 SW7       29.85F
PIERRE         SUNNY     79  41  25 CALM      29.85F
MOBRIDGE       SUNNY     76  48  37 W7        29.86F
RAPID CITY     CLOUDY    68  42  38 SE8       29.91R
$$

  *****  SOME WEATHER IN NEARBY STATES *****

CITY           SKY/WX    TMP DP  RH WIND       PRES   REMARKS
GLASGOW MT     CLOUDY    59  42  53 SW12      29.88S
GREAT FALLS MT MOSUNNY   56  37  49 W7        29.89F
CHEYENNE WY    SUNNY     66  43  43 S26G37    29.93F
SCOTTSBLUFF NE MOSUNNY   76  48  37 S15       29.86F
OMAHA NE       PTSUNNY   81  60  48 SE8       29.89R
DES MOINES IA  PTSUNNY   81  62  52 CALM      29.91S
DAVENPORT IA   MOSUNNY   88  57  34 S16G26    29.92S
CHICAGO IL     CLOUDY    82  51  34 S13G20    29.94F
EAU CLAIRE WI  CLOUDY    81  58  45 SW12G17   29.88F
LA CROSSE WI   PTSUNNY   80  59  48 E6        29.89F
$$

  *****  SOME NATIONAL WEATHER *****

CITY           SKY/WX    TMP DP  RH WIND       PRES   REMARKS
LA GUARDIA NY  CLOUDY    71  56  58 N8        29.90S
RALEIGH NC     MOSUNNY   82  51  34 CALM      30.09F
ATLANTA GA     MOSUNNY   84  50  30 W9        30.13F
NEW ORLEANS LA MOSUNNY   88  71  57 S14       30.07F HX  94
OKLAHOMA CITY  PTSUNNY   86  72  62 S15       29.87F HX  92
ALBUQUERQUE NM MOSUNNY   77  21  12 SW14G23   29.99F
SALT LAKE CITY CLOUDY    65  33  30 VRB6      29.81S THUNDER
LOS ANGELES CA MOSUNNY   66  50  56 W13       30.02S
BOISE ID       MOSUNNY   69  36  29 NW13G20   29.83F
SEATTLE WA     CLOUDY    60  51  72 W6        30.01R
$$

*** WEATHER ACROSS MANITOBA...SASKATCHEWAN AND ONTARIO ***
                ***ONTARIO***

CITY           SKY/WX    TMP DP  RH WIND       PRES   REMARKS
GERALDTON      CLOUDY    55  41  58 NE12      30.02R
THUNDER BAY    PTSUNNY   61  55  82 E12       29.95R
SIOUX LOOKOUT  CLOUDY    64  54  68 E6        29.89S
TORONTO        MOSUNNY   84  45  24 NW8G17    29.93F
BIG TROUT LK   CLOUDY    46  37  71 E7        30.11S
PICKLE LAKE    PTSUNNY   54  41  62 E12G20    30.00F
DRYDEN         TSTM      61  55  82 W8        29.93R
KENORA         PTSUNNY   64  50  59 NW9       29.90R
$$
                *** MANITOBA***

CITY           SKY/WX    TMP DP  RH WIND       PRES   REMARKS
BRANDON        PTSUNNY   72  41  33 SW14      29.85F
DAUPHIN        PTSUNNY   61  52  72 E12G20    29.89R
ISLAND LAKE    MOSUNNY   52  43  71 SE7G17    30.04S
PILOT MOUND      N/A     72  43  35 SW15        N/A
THE PAS        CLOUDY    55  41  58 SE10      29.97F
THOMPSON       PTSUNNY   48  36  61 E7        30.06F
WINNIPEG       PTSUNNY   73  43  33 E8        29.88F
LYNN LAKE      SUNNY     54  37  54 S12       29.99F
CHURCHILL      PTSUNNY   36  23  60 NE9       30.17F
GILLAM         PTSUNNY   45  27  49 VRB7      30.11F
$$
                ***SASKATCHEWAN***

CITY           SKY/WX    TMP DP  RH WIND       PRES   REMARKS
ESTEVAN        PTSUNNY   70  39  32 SW18      29.86S
KINDERSLEY     DRIZZLE   50  46  87 NE14G20   29.86R
LLOYDMINSTER   CLOUDY    57  46  67 E8        29.89S
PRINCE ALBERT  DRIZZLE   50  45  81 E14       29.92S
REGINA         PTSUNNY   63  41  45 S6        29.82R
YORKTON        PTSUNNY   64  45  48 S10G17    29.84S
N. BATTLEFORD  CLOUDY    52  45  76 NE9       29.91S   C1F1C2F2C3F3C4F4C5F5C6F6C7F7C8F8C9F9CaFaCbFbCcFcCdFdCe!


USA.gov is the U.S. government's official web portal to all federal, state and local government web resources and services.